Regional Weather Roundup
Issued by NWS Huntsville, AL

Home | Current Version | Previous Version | Text Only | Print | Product List | Glossary On
Versions: 1 2 3 4 5 6 7 8 9 10 11 12 13 14 15 16 17 18 19 20 21 22 23 24 25 26 27
000
ASUS44 KHUN 180510
RWRHUN

WEATHER ROUNDUP FOR THE TENNESSEE VALLEY
NATIONAL WEATHER SERVICE HUNTSVILLE AL
1200 AM CDT FRI AUG 18 2017

ALZ001>004-180600-
NORTHWEST ALABAMA

CITY           SKY/WX    TMP DP  RH WIND       PRES   REMARKS
SHOALS AIRPORT PTCLDY    78  74  87 SW7       29.99S
$$

ALZ005>007-016-180600-
NORTH CENTRAL ALABAMA

CITY           SKY/WX    TMP DP  RH WIND       PRES   REMARKS
DECATUR AP     MOCLDY    80  74  81 SW12      29.99S
HUNTSVILLE AP  CLOUDY    80  75  84 SW8       29.99S
MERIDIANVILLE  CLOUDY    79  70  73 SW9       29.99S
REDSTONE ARSN  CLOUDY    79  74  85 SW7       29.98S
VINEMONT AP    FAIR     N/A N/A N/A SW5       30.04S
$$

ALZ008>010-180600-
NORTHEAST ALABAMA

CITY           SKY/WX    TMP DP  RH WIND       PRES   REMARKS
ALBERTVILLE    CLEAR     77  77 100 S5        30.02S
FORT PAYNE     PTCLDY    72  70  94 CALM      30.01S
SCOTTSBORO AP  MOCLDY    81  75  83 SW5       30.00S
SCOTTSBORO HCN   N/A     77 N/A N/A MISG        N/A
VALLEY HEAD      N/A     73 N/A N/A MISG        N/A
$$

TNZ076-096-097-180600-
SOUTHEASTERN MIDDLE TENNESSEE

CITY           SKY/WX    TMP DP  RH WIND       PRES   REMARKS
TULLAHOMA      CLOUDY    73  72  94 SW6       30.00S
WINCHESTER     CLEAR     81  72  74 SW9       29.99F
$$

...SURROUNDING SITES...

CITY           SKY/WX    TMP DP  RH WIND       PRES   REMARKS
ATLANTA        CLEAR     78  73  84 SW6       30.02F
ANNISTON       PTCLDY    76  72  87 CALM      30.02S
BIRMINGHAM     CLEAR     82  72  71 S8        30.03F
CHATTANOOGA    CLEAR     78  72  81 S3        29.99S
DALTON         NOT AVBL
GADSDEN        CLEAR     77  74  90 CALM      30.01S
GOLDEN TRNGL   PTCLDY    77  70  78 SW5         N/A
HALEYVILLE     CLOUDY    76  74  93 SW6       30.03F
JACKSON TN     PTCLDY    75  75 100 SW6       29.96S
MEMPHIS        PTCLDY    76  73  91 W3        29.97S
NASHVILLE      MOCLDY    78  75  90 SW7       29.94F
OXFORD MS        N/A    N/A N/A N/A MISG        N/A
ROME           CLEAR     77  75  93 CALM      30.00S
SAVANNAH       PTCLDY    75  73  94 SW5       29.96F
SELMER         CLOUDY    73  73 100 SW6       29.97F
TUPELO         PTCLDY    78  74  87 SW6       29.99R
TUSCALOOSA     PTCLDY    78  77  96 W3        30.00S
$$

...GULF COAST WEATHER...

CITY           SKY/WX    TMP DP  RH WIND       PRES   REMARKS
GULFPORT       CLEAR     84  78  82 VRB3      30.04S HX  95
PASCAGOULA     CLEAR     81  77  88 CALM      30.04S
MOBILE         CLEAR     81  77  88 SW5       30.06R
GULF SHORES    CLEAR     82  81  98 SW3       30.04S HX  93
PENSACOLA      CLEAR     83  78  85 W3        30.03S HX  93
DESTIN         CLEAR     88  78  72 W5        30.03S HX 101
PANAMA CITY    PTCLDY    84  78  82 W5        30.02F HX  96
APPALACHICOLA  PTCLDY    82  80  94 CALM      30.03S HX  94
$$





USA.gov is the U.S. government's official web portal to all federal, state and local government web resources and services.